When you browse on this site, cookies collect data to enhance your experience and personalize the content and advertising you see.
Visit our Privacy Policy to learn more. By continuing to use the site, you agree to this use of cookies and data.
  • In Hungary
  • List of Countries
  • For 7 days
  • Water Temperature
  • Weather Map
  • News
  • Weather Widgets
  • user-avatar
    Login

    Hourly Weather Neratovice

    Today, 22 February, Saturday

    Time Temperature Precipitation Wind Pressure Humidity
    00:00 +2°C° 0 mm 3 mps 755 mmHg 78%
    01:00 +3°C° 0 mm 3 mps 755 mmHg 79%
    02:00 +2°C° 0 mm 3 mps 754 mmHg 80%
    03:00 +1°C° 0 mm 4 mps 754 mmHg 81%
    04:00 +1°C° 0 mm 4 mps 753 mmHg 82%
    05:00 +1°C° 0 mm 4 mps 753 mmHg 81%
    06:00 +1°C° 0 mm 4 mps 753 mmHg 79%
    07:00 +1°C° 0 mm 4 mps 753 mmHg 78%
    08:00 +2°C° 0 mm 5 mps 752 mmHg 71%
    09:00 +3°C° 0 mm 6 mps 752 mmHg 63%
    10:00 +5°C° 0 mm 7 mps 752 mmHg 56%
    11:00 +6°C° 0 mm 7 mps 751 mmHg 52%
    12:00 +8°C° 0 mm 7 mps 751 mmHg 48%
    13:00 +10°C° 0 mm 8 mps 750 mmHg 44%
    14:00 +10°C° 0 mm 8 mps 749 mmHg 44%
    15:00 +10°C° 0 mm 8 mps 749 mmHg 45%
    16:00 +10°C° 0 mm 8 mps 748 mmHg 45%
    17:00 +10°C° 0 mm 7 mps 748 mmHg 47%
    18:00 +9°C° 0 mm 7 mps 748 mmHg 49%
    19:00 +8°C° 0 mm 6 mps 748 mmHg 52%
    20:00 +8°C° 0 mm 7 mps 748 mmHg 55%
    21:00 +8°C° 0 mm 7 mps 748 mmHg 59%
    22:00 +7°C° 0 mm 8 mps 748 mmHg 63%
    23:00 +7°C° 0 mm 8 mps 749 mmHg 65%

    Tomorrow, 23 February, Sunday

    Time Temperature Precipitation Wind Pressure Humidity
    00:00 +7°C° 0 mm 8 mps 749 mmHg 67%
    01:00 +9°C° 0 mm 8 mps 749 mmHg 70%
    02:00 +7°C° 0.1 mm 8 mps 749 mmHg 70%
    03:00 +8°C° 0.1 mm 7 mps 749 mmHg 71%
    04:00 +8°C° 0.1 mm 7 mps 748 mmHg 71%
    05:00 +8°C° 0.1 mm 6 mps 749 mmHg 71%
    06:00 +7°C° 0.1 mm 5 mps 749 mmHg 70%
    07:00 +7°C° 0.1 mm 4 mps 749 mmHg 70%
    08:00 +7°C° 0.1 mm 5 mps 749 mmHg 72%
    09:00 +7°C° 0.1 mm 5 mps 748 mmHg 74%
    10:00 +7°C° 0.1 mm 6 mps 748 mmHg 76%
    11:00 +7°C° 0.2 mm 5 mps 747 mmHg 78%
    12:00 +7°C° 0.2 mm 5 mps 746 mmHg 80%
    13:00 +8°C° 0.2 mm 4 mps 745 mmHg 82%
    14:00 +9°C° 0.3 mm 7 mps 744 mmHg 79%
    15:00 +8°C° 0.3 mm 9 mps 742 mmHg 75%
    16:00 +9°C° 0.3 mm 11 mps 740 mmHg 72%
    17:00 +11°C° 0.2 mm 11 mps 739 mmHg 72%
    18:00 +10°C° 0.2 mm 12 mps 738 mmHg 72%
    19:00 +12°C° 0.2 mm 12 mps 737 mmHg 71%
    20:00 +10°C° 1.2 mm 13 mps 738 mmHg 73%
    21:00 +9°C° 1.2 mm 13 mps 739 mmHg 75%
    22:00 +8°C° 1.2 mm 13 mps 739 mmHg 77%
    23:00 +6°C° 0.3 mm 11 mps 741 mmHg 75%

    Day after tomorrow, 24 February, Monday

    Time Temperature Precipitation Wind Pressure Humidity
    00:00 +5°C° 0.3 mm 10 mps 743 mmHg 73%
    01:00 +2°C° 0.3 mm 8 mps 745 mmHg 72%
    02:00 +3°C° 0 mm 7 mps 746 mmHg 72%
    03:00 +2°C° 0 mm 7 mps 748 mmHg 73%
    04:00 +2°C° 0 mm 6 mps 749 mmHg 73%
    05:00 +1°C° 0 mm 6 mps 749 mmHg 73%
    06:00 +1°C° 0 mm 5 mps 750 mmHg 73%
    07:00 0°C° 0 mm 4 mps 751 mmHg 73%
    08:00 +1°C° 0 mm 5 mps 752 mmHg 70%
    09:00 +2°C° 0 mm 5 mps 752 mmHg 68%
    10:00 +3°C° 0 mm 5 mps 752 mmHg 65%
    11:00 +5°C° 0 mm 5 mps 752 mmHg 61%
    12:00 +6°C° 0 mm 4 mps 752 mmHg 58%
    13:00 +7°C° 0 mm 4 mps 752 mmHg 55%
    14:00 +7°C° 0 mm 4 mps 751 mmHg 53%
    15:00 +7°C° 0 mm 4 mps 750 mmHg 52%
    16:00 +7°C° 0 mm 4 mps 749 mmHg 51%
    17:00 +7°C° 0 mm 4 mps 749 mmHg 54%
    18:00 +6°C° 0 mm 4 mps 748 mmHg 57%
    19:00 +5°C° 0 mm 3 mps 747 mmHg 61%
    20:00 +5°C° 0 mm 4 mps 746 mmHg 64%
    21:00 +6°C° 0 mm 4 mps 745 mmHg 67%
    22:00 +6°C° 0 mm 4 mps 744 mmHg 70%
    23:00 +6°C° 0 mm 4 mps 743 mmHg 74%

    25 February, Tuesday

    Time Temperature Precipitation Wind Pressure Humidity
    00:00 +7°C° 0 mm 5 mps 743 mmHg 79%
    01:00 +8°C° 0 mm 5 mps 742 mmHg 83%
    02:00 +8°C° 0 mm 6 mps 741 mmHg 82%
    03:00 +8°C° 0 mm 6 mps 741 mmHg 81%
    04:00 +8°C° 0 mm 6 mps 740 mmHg 80%
    05:00 +8°C° 0.1 mm 6 mps 740 mmHg 79%
    06:00 +8°C° 0.1 mm 6 mps 739 mmHg 79%
    07:00 +8°C° 0.1 mm 6 mps 739 mmHg 78%
    08:00 +8°C° 0 mm 6 mps 738 mmHg 77%
    09:00 +9°C° 0 mm 6 mps 738 mmHg 77%
    10:00 +9°C° 0 mm 7 mps 738 mmHg 76%
    11:00 +9°C° 0.1 mm 8 mps 738 mmHg 73%
    12:00 +10°C° 0.1 mm 9 mps 737 mmHg 71%
    13:00 +10°C° 0.1 mm 9 mps 737 mmHg 68%
    14:00 +10°C° 0.2 mm 9 mps 737 mmHg 65%
    15:00 +10°C° 0.2 mm 9 mps 737 mmHg 62%
    16:00 +8°C° 0.2 mm 9 mps 736 mmHg 59%
    17:00 +8°C° 0 mm 7 mps 736 mmHg 61%
    18:00 +5°C° 0 mm 6 mps 736 mmHg 63%
    19:00 +5°C° 0 mm 5 mps 736 mmHg 64%
    20:00 +4°C° 0 mm 4 mps 736 mmHg 67%
    21:00 +4°C° 0 mm 4 mps 736 mmHg 70%
    22:00 +3°C° 0 mm 4 mps 736 mmHg 73%
    23:00 +3°C° 0 mm 4 mps 735 mmHg 74%

    26 February, Wednesday

    Time Temperature Precipitation Wind Pressure Humidity
    00:00 +2°C° 0 mm 5 mps 735 mmHg 75%
    01:00 +2°C° 0 mm 5 mps 734 mmHg 76%
    02:00 +2°C° 0 mm 6 mps 734 mmHg 76%
    03:00 +2°C° 0 mm 6 mps 733 mmHg 76%
    04:00 +2°C° 0 mm 7 mps 733 mmHg 76%
    05:00 +2°C° 0 mm 6 mps 732 mmHg 78%
    06:00 +1°C° 0 mm 5 mps 732 mmHg 80%
    07:00 +1°C° 0 mm 4 mps 731 mmHg 82%
    08:00 +2°C° 0.2 mm 6 mps 731 mmHg 72%
    09:00 +2°C° 0.2 mm 8 mps 731 mmHg 62%
    10:00 +2°C° 0.2 mm 10 mps 731 mmHg 52%
    11:00 +3°C° 0.1 mm 10 mps 732 mmHg 49%
    12:00 +3°C° 0.1 mm 10 mps 732 mmHg 47%
    13:00 +5°C° 0.1 mm 10 mps 732 mmHg 44%
    14:00 +3°C° 0.1 mm 10 mps 733 mmHg 51%
    15:00 +2°C° 0.1 mm 10 mps 733 mmHg 59%
    16:00 +1°C° 0.1 mm 10 mps 733 mmHg 66%
    17:00 0°C° 0 mm 8 mps 734 mmHg 68%
    18:00 0°C° 0 mm 7 mps 735 mmHg 69%
    19:00 +1°C° 0 mm 5 mps 735 mmHg 71%
    20:00 +1°C° 0.1 mm 5 mps 736 mmHg 74%
    21:00 -1°C° 0.1 mm 6 mps 737 mmHg 76%
    22:00 -1°C° 0.1 mm 6 mps 737 mmHg 79%
    23:00 -1°C° 0 mm 6 mps 738 mmHg 77%

    27 February, Thursday

    Time Temperature Precipitation Wind Pressure Humidity
    00:00 -1°C° 0 mm 6 mps 738 mmHg 75%
    01:00 -2°C° 0 mm 6 mps 738 mmHg 73%
    02:00 -2°C° 0.1 mm 6 mps 738 mmHg 77%
    03:00 -2°C° 0.1 mm 6 mps 738 mmHg 82%
    04:00 -2°C° 0.1 mm 6 mps 738 mmHg 87%
    05:00 -2°C° 0.1 mm 6 mps 739 mmHg 84%
    06:00 -1°C° 0.1 mm 5 mps 739 mmHg 80%
    07:00 -1°C° 0.1 mm 5 mps 740 mmHg 77%
    08:00 -1°C° 0 mm 6 mps 740 mmHg 72%
    09:00 +1°C° 0 mm 6 mps 741 mmHg 67%
    10:00 +2°C° 0 mm 6 mps 741 mmHg 62%
    11:00 +2°C° 0.2 mm 7 mps 741 mmHg 61%
    12:00 +3°C° 0.2 mm 7 mps 741 mmHg 59%
    13:00 +3°C° 0.2 mm 7 mps 742 mmHg 58%
    14:00 +3°C° 0.2 mm 6 mps 741 mmHg 57%
    15:00 +3°C° 0.2 mm 6 mps 741 mmHg 56%
    16:00 +3°C° 0.2 mm 6 mps 741 mmHg 54%
    17:00 +2°C° 0 mm 5 mps 741 mmHg 60%
    18:00 +2°C° 0 mm 3 mps 741 mmHg 65%
    19:00 +2°C° 0 mm 2 mps 741 mmHg 70%
    20:00 +2°C° 0 mm 2 mps 742 mmHg 75%
    21:00 +1°C° 0 mm 2 mps 742 mmHg 79%
    22:00 +1°C° 0 mm 2 mps 742 mmHg 84%
    23:00 +1°C° 0 mm 2 mps 742 mmHg 86%
    Show more